Location: Cella
(44.7333°N, 10.5667°E)
Time: 08:37:28
(UTC+00:00)

SeaSat 1 - Pass Details

Date: 03 March 2021
Orbit: 744 x 747 km, 108.0° (Epoch: 19 April)

Event Time Altitude Azimuth Distance (km) Brightness Sun altitude
Rises 17:56:03 0° 32° (NNE) 3,200 5.4 -9.3°
Reaches altitude 10° 17:58:25 10° 39° (NE) 2,272 4.6 -9.7°
Maximum altitude 18:03:09 46° 112° (ESE) 996 2.7 -10.6°
Drops below altitude 10° 18:07:53 10° 186° (S) 2,258 5.0 -11.4°
Sets 18:10:13 0° 192° (SSW) 3,177 5.8 -11.8°
